Location: Madrid
(40.4000°N, 3.6830°W)
Time: 00:05:38
(UTC+02:00)

ISS - Pass Details

Date: 04 August 2020
Orbit: 418 x 420 km, 51.6° (Epoch: 08 August)

Event Time Altitude Azimuth Distance (km) Brightness Sun altitude
Rises 22:47:39 0° 293° (WNW) 2,366 1.7 -14.3°
Reaches altitude 10° 22:50:12 10° 273° (W) 1,498 -0.1 -14.7°
Maximum altitude 22:52:32 18° 229° (SW) 1,111 -1.5 -15.0°
Enters shadow 22:54:19 13° 192° (SSW) 1,343 -1.5 -15.3°
